AirNav  
 
 483 users online  

MD93 Hexton Farms Airport
Cecilton, Maryland, USA

GOING TO CECILTON?


FAA INFORMATION EFFECTIVE 25 MARCH 2021

Location

FAA Identifier: MD93
Lat/Long: 39-22-30.4040N 075-54-23.7860W
39-22.506733N 075-54.396433W
39.3751122,-75.9066072
(estimated)
Elevation: 65 ft. / 20 m (estimated)
Variation: 11W (1985)
From city: 3 miles SW of CECILTON, MD
Time zone: UTC -4 (UTC -5 during Standard Time)
Zip code: 21919

Airport Operations

Airport use: Private use. Permission required prior to landing
Activation date: 02/1964
Control tower: no
ARTCC: WASHINGTON CENTER
FSS: LEESBURG FLIGHT SERVICE STATION
Attendance: UNATNDD
Wind indicator: yes
Segmented circle: no

Airport Communications

WX AWOS-3 at EVY (12 nm NE): 132.325 (302-378-2063)
WX AWOS-3 at 33N (17 nm SE): 120.125 (302-735-9754)

Nearby radio navigation aids

VOR radial/distance  VOR name  Freq  Var
ENOr304/20.1SMYRNA VORTAC111.4009W
DQOr227/22.9DUPONT VORTAC114.0010W
OODr251/32.0WOODSTOWN VORTAC112.8010W
MXEr207/34.3MODENA VORTAC113.2009W
BALr082/37.1BALTIMORE VORTAC115.1011W

 
NDB name  Hdg/Dist  Freq  Var  ID
RAINBOW277/35.936311WRNB .-. -. -...

Airport Services

Airframe service: NONE
Powerplant service: NONE

Runway Information

Runway 14/32

Dimensions: 3800 x 100 ft. / 1158 x 30 m
Surface: turf
RUNWAY 14  RUNWAY 32
Traffic pattern: leftleft

Airport Ownership and Management from official FAA records

Ownership: Privately-owned
Owner: SAMUEL F & JOANNE J DUPONT
HEXTON FARMS PO BOX 384
GEORGETON, MD 21930
Phone 410-275-2626
Manager: SAMUEL DUPONT
HEXTON FARMS PO BOX 384
GEORGETOWN, MD 21930
Phone 410-275-2626

Additional Remarks

FOR CD CTC POTOMAC APCH AT 866-429-5882.

Instrument Procedures

There are no published instrument procedures at MD93.

Some nearby airports with instrument procedures:

58M - Claremont Airport (12 nm N)
KEVY - Summit Airport (12 nm NE)
KAPG - Phillips Army Airfield (13 nm NW)
33N - Delaware Airpark (17 nm SE)
KEDG - Weide Army Heliport (Aberdeen Proving Ground) (18 nm W)
0W3 - Harford County Airport (18 nm NW)
 
Loc | Ops | Rwys | IFR | FBO | Links
Com | Nav | Svcs | Stats | Notes
Area around MD93 (Hexton Farms Airport)
 
Road maps at: MapQuest Bing Google
 
Aerial photo
No photo
 
Sectional chart

 
Airport distance calculator
Flying to Hexton Farms Airport? Find the distance to fly.

From to MD93

Sunrise and sunset
Times for 14-Apr-2021
 Local
(UTC-4)
 Zulu
(UTC)
Morning civil twilight06:0110:01
Sunrise06:2910:29
Sunset19:3923:39
Evening civil twilight20:0700:07

Current date and time
Zulu (UTC)  14-Apr-2021 10:25:20
Local (UTC-4)  14-Apr-2021 06:25:20
 
METAR
KAPG 
9nm NW 
140958Z 00000KT 7SM SCT080 OVC120 06/06 A3009 RMK AO2A SLP193 T00590058 $
K33N 
17nm SE 
140955Z AUTO 00000KT 10SM CLR 07/07 A3009 RMK A01
TAF
KILG 
23nm NE 
140520Z 1406/1506 VRB03KT P6SM FEW150 FM141500 20006KT P6SM BKN060 FM141800 21007KT P6SM VCSH BKN025 FM142000 20006KT 6SM -RA BR OVC015 FM150200 19005KT 3SM -RA BR OVC006
KMTN 
24nm W 
140530Z 1406/1506 00000KT P6SM SKC FM141700 19006KT 6SM -SHRA OVC020 FM141900 18006KT 5SM -SHRA OVC015 FM142100 18006KT 5SM -SHRA OVC008 FM150300 18006KT 3SM -SHRA OVC008 AMD NOT SKED
KDOV 
26nm SE 
140800Z 1408/1514 23006KT 9000 BR FEW040 QNH3007INS BECMG 1414/1415 22009KT 9999 NSW FEW030 BKN060 QNH3005INS BECMG 1417/1418 22010KT 8000 -RA SCT019 OVC020 QNH2992INS BECMG 1420/1421 22010KT 8000 -RA BKN019 QNH2991INS BECMG 1501/1502 20010KT 8000 -RA OVC005 QNH2971INS TX14/1418Z TN09/1410Z
NOTAMs
Click for the latest NOTAMs
NOTAMs are issued by the DoD/FAA and will open in a separate window not controlled by AirNav.

 

 
 

Would you like to see your business listed on this page?

 If your business provides an interesting product or service to pilots, flight crews, aircraft, or users of the Hexton Farms Airport, you should consider listing it here.  To start the listing process, click on the button below
 
Add a business
 

Other Pages about Hexton Farms Airport

Update a link
 
Copyright © AirNav, LLC. All rights reserved. Privacy Policy  Contact